EW2974 Weather Reports


Display with metric or nautical units.
time (UTC)temp
F
wind
direction
speed
MPH
gust
MPH
rain 1hr
in
rain 24hr
in
rain mn
in
humidity
%
barometer
mb
20260507115404 40 134 0.0 0.0 0.00 0.01 0.00 92 1012.3
20260507114404 40 133 0.0 0.0 0.00 0.01 0.00 92 1012.3
20260507113904 39 133 0.0 0.0 0.00 0.01 0.00 92 1012.3
20260507113404 39 133 0.0 0.0 0.00 0.01 0.00 92 1012.3
20260507112903 39 133 0.0 0.0 0.00 0.01 0.00 92 1012.2
20260507112404 39 133 0.0 0.0 0.00 0.01 0.00 92 1012.3
20260507111904 39 133 0.0 0.0 0.00 0.01 0.00 92 1012.3
20260507111404 39 133 0.0 0.0 0.00 0.01 0.00 93 1012.1
20260507110904 39 133 0.0 0.0 0.00 0.01 0.00 93 1012.1
20260507110405 38 133 0.0 0.0 0.00 0.01 0.00 92 1012.2
20260507105904 38 133 0.0 0.0 0.00 0.01 0.00 93 1012.0
20260507105404 38 133 0.0 0.0 0.00 0.01 0.00 92 1012.0
20260507104404 38 133 0.0 0.0 0.00 0.01 0.00 93 1011.9
20260507103903 38 133 0.0 0.0 0.00 0.01 0.00 92 1011.8
20260507103404 38 133 0.0 0.0 0.00 0.01 0.00 92 1011.9
20260507102904 38 133 0.0 0.0 0.00 0.01 0.00 92 1011.9
20260507101904 38 133 0.0 0.0 0.00 0.02 0.00 92 1011.9
20260507101404 38 133 0.0 0.0 0.00 0.02 0.00 92 1011.8
20260507100904 38 133 0.0 0.0 0.00 0.03 0.00 92 1011.7
20260507100404 38 133 0.0 0.0 0.00 0.03 0.00 92 1011.6
20260507095904 38 133 0.0 0.0 0.00 0.04 0.00 92 1011.6
20260507094903 38 133 0.0 0.0 0.00 0.05 0.00 92 1011.6
20260507094404 38 133 0.0 0.0 0.00 0.06 0.00 93 1011.6
20260507093904 38 133 0.0 0.0 0.00 0.07 0.00 93 1011.6
20260507093403 38 133 0.0 0.0 0.00 0.08 0.00 93 1011.7
20260507092904 38 133 0.0 0.0 0.00 0.08 0.00 92 1011.7
20260507092404 37 133 0.0 0.0 0.00 0.08 0.00 92 1011.7
20260507091404 37 133 0.0 0.0 0.00 0.09 0.00 92 1011.9
20260507090904 37 133 0.0 0.0 0.00 0.09 0.00 92 1011.9
20260507085904 37 133 0.0 0.0 0.00 0.09 0.00 92 1011.8
20260507085404 37 133 0.0 0.0 0.00 0.10 0.00 91 1011.7
20260507084904 37 133 0.0 0.0 0.00 0.10 0.00 91 1011.7
20260507084404 37 133 0.0 0.0 0.00 0.11 0.00 91 1011.8
20260507083904 38 133 0.0 0.0 0.00 0.12 0.00 91 1011.7
20260507083404 38 133 0.0 0.0 0.00 0.13 0.00 91 1011.7
20260507082905 38 133 0.0 0.0 0.00 0.14 0.00 91 1011.8
20260507082405 38 133 0.0 0.0 0.00 0.16 0.00 91 1011.8
20260507081904 38 133 0.0 0.0 0.00 0.18 0.00 91 1011.9
20260507081404 38 133 0.0 0.0 0.00 0.19 0.00 91 1012.0
20260507080904 38 133 0.0 0.0 0.00 0.21 0.00 91 1012.0
20260507080404 38 133 0.0 0.0 0.00 0.22 0.00 91 1011.9
20260507075904 38 133 0.0 0.0 0.00 0.23 0.00 91 1012.0
20260507075403 38 133 0.0 0.0 0.00 0.25 0.00 91 1011.9
20260507074904 38 133 0.0 0.0 0.00 0.26 0.00 91 1012.0
20260507074404 38 133 0.0 0.0 0.00 0.27 0.00 90 1012.0
20260507073904 39 133 0.0 0.0 0.00 0.28 0.00 90 1012.0
20260507073404 39 133 0.0 0.0 0.00 0.30 0.00 90 1012.0
20260507072403 39 133 0.0 0.0 0.00 0.31 0.00 90 1012.0
20260507071903 39 133 0.0 0.0 0.00 0.32 0.00 90 1011.9
20260507071404 39 133 0.0 0.0 0.00 0.33 0.00 89 1012.0
20260507070904 39 133 0.0 0.0 0.00 0.34 0.00 89 1012.0
20260507070404 39 133 0.0 0.0 0.00 0.35 0.00 89 1012.0
20260507065904 39 133 0.0 0.0 0.00 0.35 0.00 89 1011.9
20260507065403 40 133 0.0 0.0 0.00 0.36 0.00 89 1012.0
20260507064403 40 133 0.0 0.0 0.00 0.38 0.00 88 1012.1
20260507063903 40 133 0.0 0.0 0.00 0.38 0.00 88 1012.2
20260507063403 40 133 0.0 0.0 0.00 0.39 0.00 87 1012.2
20260507062903 41 133 0.0 0.0 0.00 0.40 0.00 87 1012.2
20260507061904 41 133 0.0 0.0 0.00 0.41 0.00 86 1012.4
20260507061404 41 133 0.0 0.0 0.00 0.42 0.00 86 1012.5
20260507060903 42 133 0.0 0.0 0.00 0.43 0.00 85 1012.4
20260507060404 42 133 0.0 0.0 0.00 0.43 0.00 85 1012.4
20260507055405 42 133 0.0 0.0 0.00 0.45 0.00 85 1012.4
20260507053403 43 133 0.0 0.0 0.00 0.46 0.00 83 1012.5
20260507052905 43 133 0.0 0.0 0.00 0.47 0.00 83 1012.5
20260507052405 43 133 0.0 0.0 0.00 0.47 0.00 83 1012.5
20260507051905 43 133 0.0 0.0 0.00 0.48 0.00 83 1012.5
20260507051405 43 133 0.0 0.0 0.00 0.48 0.00 82 1012.4
20260507050905 43 133 0.0 0.0 0.00 0.49 0.00 83 1012.5
20260507050405 43 133 0.0 0.0 0.00 0.49 0.00 82 1012.6
20260507045905 43 133 0.0 0.0 0.00 0.50 0.00 82 1012.6
20260507045405 43 133 0.0 0.0 0.00 0.50 0.00 81 1012.6
20260507044905 44 133 0.0 0.0 0.00 0.51 0.00 81 1012.7
20260507044405 44 133 0.0 0.0 0.00 0.51 0.00 81 1012.8
20260507042904 44 133 0.0 0.0 0.00 0.53 0.00 78 1012.9
20260507042405 44 133 0.0 0.0 0.00 0.54 0.00 78 1013.0
20260507041905 44 133 0.0 0.0 0.00 0.54 0.00 78 1013.1
20260507041405 44 133 0.0 0.0 0.00 0.55 0.00 77 1013.1
20260507040905 44 133 0.0 0.0 0.00 0.56 0.00 77 1013.1
20260507040405 44 133 0.0 0.0 0.00 0.57 0.00 75 1013.2
20260507035405 45 133 0.0 0.0 0.00 0.58 0.57 74 1013.2
20260507033905 46 133 0.0 0.0 0.00 0.59 0.57 71 1013.2
20260507033405 46 133 0.0 0.0 0.00 0.60 0.57 71 1013.2
20260507032905 46 133 0.0 0.0 0.00 0.61 0.57 71 1013.1
20260507032404 46 133 0.0 0.0 0.00 0.61 0.57 71 1013.1
20260507031905 46 133 0.0 0.0 0.00 0.62 0.57 72 1013.0
20260507031405 47 133 0.0 0.0 0.00 0.62 0.57 72 1013.0
20260507025405 47 133 0.0 0.0 0.00 0.67 0.57 72 1013.3
20260507024905 47 133 0.0 0.0 0.00 0.68 0.57 71 1013.1
20260507023904 47 133 0.0 0.0 0.00 0.70 0.57 70 1013.1
20260507022905 47 133 0.0 0.0 0.00 0.70 0.57 69 1013.1
20260507022405 47 133 0.0 0.0 0.00 0.71 0.57 70 1013.1
20260507021905 47 133 0.0 0.0 0.00 0.71 0.57 70 1013.0
20260507021405 47 133 0.0 0.0 0.00 0.71 0.57 70 1012.9
20260507020405 47 133 0.0 0.0 0.00 0.72 0.57 70 1012.9
20260507015405 48 133 0.0 0.0 0.00 0.73 0.57 68 1012.7
20260507014905 48 133 0.0 0.0 0.00 0.74 0.57 68 1012.6
20260507014405 48 133 0.0 0.0 0.00 0.74 0.57 68 1012.5
20260507013904 48 133 0.0 0.0 0.00 0.74 0.57 67 1012.5
20260507013405 48 133 0.0 0.0 0.00 0.74 0.57 70 1012.4
20260507012905 48 133 0.0 0.0 0.00 0.74 0.57 70 1012.4
20260507012405 48 133 0.0 0.0 0.00 0.75 0.57 68 1012.3
20260507011905 48 133 0.0 0.0 0.00 0.76 0.57 67 1012.3
20260507011405 48 133 0.0 0.0 0.00 0.76 0.57 67 1012.4
20260507010406 49 133 0.0 0.0 0.01 0.77 0.57 69 1012.3
20260507005905 49 133 0.0 0.0 0.01 0.77 0.57 68 1012.3
20260507005405 49 133 0.0 0.0 0.01 0.77 0.57 65 1012.3
20260507004905 49 133 0.0 0.0 0.01 0.77 0.57 65 1012.2
20260507004405 49 133 0.0 0.0 0.01 0.77 0.57 65 1012.2
20260507003405 49 133 0.0 0.0 0.01 0.78 0.57 65 1012.2
20260507002905 49 133 0.0 0.0 0.01 0.79 0.57 61 1012.0
20260507001405 50 133 0.0 0.0 0.01 0.83 0.57 63 1012.0
20260507000905 50 133 0.0 0.0 0.00 0.83 0.56 64 1012.1
20260507000405 50 133 0.0 0.0 0.00 0.86 0.56 63 1012.1
20260506235405 50 133 0.0 0.0 0.00 1.03 0.56 63 1012.3
20260506234905 50 133 0.0 0.0 0.00 1.03 0.56 62 1012.2
20260506233905 50 133 0.0 0.0 0.00 1.04 0.56 59 1012.0
20260506232905 51 133 0.0 0.0 0.00 1.04 0.56 59 1012.0
20260506232404 51 149 0.0 0.0 0.00 1.05 0.56 54 1011.8
20260506231905 51 150 0.0 0.0 0.00 1.05 0.56 57 1011.8
20260506231404 51 149 0.0 0.0 0.00 1.05 0.56 57 1011.9
20260506230405 51 150 0.0 0.0 0.00 1.05 0.56 58 1012.0
20260506225904 51 149 0.0 0.0 0.00 1.05 0.56 56 1011.8
20260506224905 51 173 0.0 0.0 0.00 1.05 0.56 56 1011.7
20260506223905 51 161 0.0 0.0 0.00 1.06 0.56 54 1011.4
20260506223405 51 161 0.0 0.0 0.00 1.06 0.56 53 1011.4
20260506222905 52 168 0.0 0.0 0.00 1.06 0.56 56 1011.4
20260506222405 52 168 0.0 0.0 0.00 1.06 0.56 56 1011.5
20260506221905 52 168 0.0 0.0 0.00 1.06 0.56 58 1011.5
20260506221404 52 169 0.0 1.0 0.00 1.06 0.56 53 1011.4
20260506220405 52 283 0.0 0.0 0.00 1.06 0.56 56 1011.3
20260506214905 52 271 0.0 0.0 0.00 1.06 0.56 51 1011.0
20260506213905 53 57 0.0 3.0 0.00 1.06 0.56 51 1010.9
20260506213404 53 234 2.0 6.0 0.00 1.06 0.56 48 1010.9
20260506212905 53 267 0.0 1.0 0.00 1.06 0.56 52 1010.8
20260506212405 53 10 0.0 0.0 0.00 1.06 0.56 47 1010.8
20260506211905 53 247 1.0 6.0 0.00 1.06 0.56 51 1010.7
20260506211405 54 237 0.0 0.0 0.00 1.06 0.56 49 1010.7
20260506210904 54 244 0.0 1.0 0.00 1.06 0.56 47 1010.8
20260506210405 54 230 0.0 0.0 0.00 1.06 0.56 50 1010.7
20260506205904 54 231 0.0 5.0 0.00 1.07 0.56 53 1010.6
20260506205405 54 209 0.0 0.0 0.00 1.07 0.56 53 1010.4
20260506204905 54 197 0.0 0.0 0.00 1.08 0.56 51 1010.4
20260506204404 54 202 0.0 0.0 0.00 1.08 0.56 50 1010.5
20260506203904 54 202 0.0 0.0 0.00 1.08 0.56 53 1010.4
20260506203405 54 202 0.0 0.0 0.00 1.08 0.56 52 1010.4
20260506202905 54 22 0.0 0.0 0.00 1.08 0.56 51 1010.3
20260506202405 54 40 1.0 5.0 0.00 1.08 0.56 49 1010.3
20260506201905 55 237 0.0 1.0 0.00 1.08 0.56 49 1010.5
20260506201404 55 321 0.0 0.0 0.00 1.08 0.56 52 1010.4
20260506200905 55 32 0.0 0.0 0.00 1.08 0.56 55 1010.0
20260506200405 55 256 0.0 0.0 0.00 1.08 0.56 55 1010.0
20260506195905 54 257 0.0 0.0 0.00 1.08 0.56 54 1010.1
20260506195405 54 257 0.0 0.0 0.00 1.08 0.56 51 1010.3
20260506194904 54 250 2.0 9.0 0.00 1.08 0.56 49 1010.4
20260506194405 54 235 0.0 5.0 0.00 1.08 0.56 51 1010.4
20260506193905 54 107 1.0 12.0 0.00 1.08 0.56 56 1010.3
20260506193405 55 336 0.0 0.0 0.00 1.08 0.56 53 1010.2
20260506192904 55 243 0.0 0.0 0.00 1.08 0.56 51 1010.4
20260506192405 55 233 0.0 0.0 0.00 1.08 0.56 49 1010.4
20260506191904 55 48 0.0 5.0 0.00 1.08 0.56 53 1010.3
20260506191404 56 283 1.0 8.0 0.00 1.08 0.56 52 1010.3
20260506190905 56 252 1.0 9.0 0.00 1.08 0.56 51 1010.3
20260506190405 56 252 1.0 6.0 0.00 1.08 0.56 51 1010.2
20260506185404 57 101 0.0 9.0 0.00 1.08 0.56 56 1010.0
20260506184905 57 40 0.0 3.0 0.00 1.08 0.56 54 1010.0
20260506184405 57 34 0.0 6.0 0.00 1.08 0.56 55 1010.0
20260506183905 57 327 1.0 6.0 0.00 1.08 0.56 55 1009.8
20260506182905 58 243 1.0 6.0 0.00 1.08 0.56 57 1009.9
20260506182405 57 280 1.0 14.0 0.00 1.08 0.56 55 1010.0
20260506181904 57 163 1.0 8.0 0.00 1.08 0.56 56 1009.8
20260506181404 56 285 0.0 0.0 0.00 1.08 0.56 56 1009.9
20260506180404 57 264 1.0 9.0 0.00 1.08 0.56 57 1009.8
20260506175905 57 67 0.0 1.0 0.00 1.08 0.56 57 1009.9
20260506175405 57 36 0.0 13.0 0.00 1.08 0.56 58 1010.0
20260506174405 55 248 2.0 12.0 0.00 1.08 0.56 59 1010.0
20260506173904 56 51 0.0 0.0 0.00 1.08 0.56 58 1009.9
20260506173405 56 265 4.0 9.0 0.00 1.08 0.56 59 1009.7
20260506172905 55 260 0.0 3.0 0.00 1.08 0.56 62 1009.7
20260506171904 54 260 1.0 12.0 0.00 1.08 0.56 66 1009.8
20260506171404 54 238 0.0 0.0 0.00 1.08 0.56 66 1009.7
20260506170905 55 234 2.0 9.0 0.00 1.08 0.56 66 1009.7
20260506170405 55 91 0.0 5.0 0.00 1.08 0.56 66 1009.8
20260506165905 56 324 0.0 3.0 0.00 1.08 0.56 69 1009.7
20260506165404 55 72 2.0 6.0 0.00 1.08 0.56 70 1009.7
20260506164904 55 252 5.0 12.0 0.00 1.08 0.56 68 1009.5
20260506164404 55 252 3.0 12.0 0.00 1.08 0.56 70 1009.5
20260506163905 54 282 0.0 6.0 0.00 1.08 0.56 70 1009.5
20260506163404 54 173 0.0 1.0 0.00 1.08 0.56 74 1009.4
20260506162904 54 228 1.0 3.0 0.00 1.08 0.56 73 1009.4
20260506162404 53 252 3.0 6.0 0.00 1.08 0.56 71 1009.5
20260506161905 53 39 0.0 8.0 0.00 1.08 0.56 76 1009.6
20260506161405 53 51 0.0 0.0 0.00 1.08 0.56 74 1009.5
20260506160904 53 45 0.0 0.0 0.00 1.08 0.56 77 1009.6
20260506160405 53 45 0.0 5.0 0.00 1.08 0.56 76 1009.4
20260506155904 53 229 2.0 5.0 0.00 1.08 0.56 76 1009.3
20260506154404 51 237 0.0 1.0 0.00 1.08 0.56 81 1009.3
20260506153404 50 68 0.0 0.0 0.00 1.08 0.56 82 1009.4
20260506152405 50 63 0.0 5.0 0.00 1.08 0.56 83 1009.2
20260506151905 50 32 0.0 0.0 0.00 1.08 0.56 85 1009.1
20260506151405 50 191 0.0 0.0 0.00 1.08 0.56 87 1009.0
20260506150905 49 61 0.0 5.0 0.00 1.08 0.56 87 1008.9
20260506150404 49 37 0.0 8.0 0.00 1.08 0.56 86 1008.8
20260506145905 50 286 0.0 1.0 0.00 1.08 0.56 89 1008.8
20260506144905 49 255 0.0 5.0 0.00 1.08 0.56 89 1008.8
20260506144405 49 264 0.0 0.0 0.00 1.08 0.56 89 1008.6
20260506143904 49 261 1.0 6.0 0.00 1.08 0.56 91 1008.7
20260506143404 49 238 0.0 1.0 0.00 1.08 0.56 91 1008.6
20260506142905 49 241 1.0 6.0 0.00 1.08 0.56 91 1008.7
20260506141904 49 52 0.0 0.0 0.00 1.08 0.56 92 1008.7
20260506141405 49 130 0.0 0.0 0.00 1.08 0.56 92 1008.6
20260506140905 49 130 0.0 0.0 0.00 1.08 0.56 92 1008.5
20260506140404 49 130 0.0 3.0 0.00 1.08 0.56 92 1008.3
20260506135904 49 205 0.0 0.0 0.00 1.08 0.56 92 1008.3
20260506135405 49 201 0.0 6.0 0.00 1.08 0.56 93 1008.3
20260506134905 49 197 0.0 0.0 0.00 1.08 0.56 93 1008.2
20260506134405 49 197 0.0 0.0 0.00 1.08 0.56 93 1008.0
20260506133905 49 197 0.0 0.0 0.00 1.08 0.56 93 1007.9
20260506133405 49 207 0.0 0.0 0.00 1.08 0.56 94 1008.0
20260506132904 48 211 0.0 0.0 0.00 1.08 0.56 94 1007.9
20260506131904 48 211 0.0 0.0 0.00 1.08 0.56 94 1007.9
20260506130404 48 243 0.0 0.0 0.00 1.08 0.56 94 1007.8
20260506125905 48 240 0.0 5.0 0.00 1.08 0.56 94 1007.7
20260506125405 48 119 0.0 0.0 0.00 1.08 0.56 94 1007.6
20260506124405 47 119 0.0 0.0 0.00 1.08 0.56 94 1007.4
20260506123405 47 119 0.0 0.0 0.00 1.08 0.56 94 1007.4
20260506122904 47 119 0.0 0.0 0.00 1.08 0.56 94 1007.3
20260506121404 47 119 0.0 0.0 0.00 1.09 0.56 94 1007.4
20260506120405 47 119 0.0 0.0 0.00 1.09 0.56 94 1007.3
20260506115905 46 119 0.0 0.0 0.00 1.09 0.56 94 1007.3